Home > Weather > San Luis Obispo > Past weeks

Flag for USA Weather for the Past 2 Weeks in San Luis Obispo, California, USA

Now
68 °F

Overcast.


Feels Like: 68 °F
Forecast: 52 / 72 °F
Wind: 12 mph from Northwest

Location: San Luis Obispo County-Mc Chesney Field

Current Time: May 3, 2016 at 3:21:18 PM

Latest Report: May 3, 2016 at 1:56 PM


Visibility: 10 mi

Pressure: 29.96 "Hg

Humidity: 61%

Dew Point: 54 °F

Location of San Luis ObispoLocation

Historic Weather in San Luis Obispo — Graph

°F

San Luis Obispo Temperature Yesterday

Maximum temperature yesterday: 72 °F (at 2:56 PM)
Minimum temperature yesterday: 55 °F (at 10:56 PM)
Average temperature yesterday: 60 °F

High & Low Weather Summary for the Past Weeks

 TemperatureHumidityPressure
High87 °F (Apr 18, 1:56 PM)96% (Apr 20, 1:56 AM)30.16 "Hg (Apr 20, 1:56 AM)
Low42 °F (Apr 25, 5:56 AM)16% (Apr 18, 1:56 PM)29.79 "Hg (Apr 30, 6:56 PM)
Average59 °F66%29.97 "Hg
* Reported Apr 18 1:56 PM — May 3 1:56 PM, San Luis Obispo, Weather by CustomWeather, © 2016

Note: Actual official high and low records may vary slightly from our data, if they occured in-between our weather recording intervals... More about our weather records

Advertising

San Luis Obispo Weather History for the Previous 24 Hours

Scroll right to see more
 ConditionsComfort  
Time TempWeatherWind HumidityBarometerVisibility
1:56 PM
Tue, May 3
68 °FOvercast.12 mph61%29.96 "Hg10 mi
12:56 PM73 °FSunny.16 mph53%29.96 "Hg10 mi
11:56 AM73 °FSunny.No wind50%29.98 "Hg10 mi
10:56 AM67 °FOvercast.No wind61%29.99 "Hg10 mi
9:56 AM62 °FPartly sunny.3 mph73%29.99 "Hg10 mi
8:56 AM58 °FLow clouds.No wind84%29.99 "Hg9 mi
7:56 AM56 °FLow clouds.6 mph87%29.98 "Hg2 mi
6:56 AM54 °FFog.6 mph93%29.97 "Hg2 mi
5:56 AM55 °FFog.No wind90%29.95 "Hg5 mi
4:56 AM55 °FLow clouds.No wind90%29.95 "Hg8 mi
3:56 AM55 °FLow clouds.N/A90%29.96 "Hg9 mi
2:56 AM55 °FLow clouds.7 mph90%29.97 "Hg9 mi
1:56 AM55 °FLow clouds.N/A90%29.99 "Hg9 mi
12:56 AM54 °FPassing clouds.5 mph90%30.00 "Hg9 mi
11:56 PM
Mon, May 2
55 °FClear.7 mph87%30.01 "Hg10 mi
10:56 PM55 °FClear.8 mph87%30.02 "Hg10 mi
9:56 PM56 °FClear.3 mph87%30.02 "Hg10 mi
8:56 PM58 °FOvercast.10 mph81%30.03 "Hg10 mi
7:56 PM58 °FMostly cloudy.12 mph81%30.01 "Hg10 mi
6:56 PM60 °FScattered clouds.17 mph75%30.00 "Hg10 mi
5:56 PM63 °FScattered clouds.16 mph68%29.99 "Hg10 mi
4:56 PM67 °FScattered clouds.13 mph61%29.99 "Hg10 mi
3:56 PM71 °FScattered clouds.12 mph55%30.00 "Hg10 mi
Weather by CustomWeather, © 2016

See weather overviewHow to use our weather pages